Regional Weather Roundup
Issued by NWS

Home | Current Version | Previous Version | Text Only | Print | Product List | Glossary Off
Versions: 1 2 3 4 5 6 7 8 9 10 11 12 13 14 15 16 17 18 19 20 21 22 23 24 25 26 27 28 29 30 31 32 33 34 35 36 37 38 39 40 41 42 43 44 45 46 47 48 49 50

000
ASUS43 KLOT 272110
RWRIL

ILLINOIS REGIONAL WEATHER ROUNDUP
NATIONAL WEATHER SERVICE CHICAGO/ROMEOVILLE IL
300 PM CST SAT DEC 27 2014

NOTE: "FAIR" INDICATES FEW OR NO CLOUDS BELOW 12,000 FEET WITH NO
SIGNIFICANT WEATHER AND/OR OBSTRUCTIONS TO VISIBILITY.

* THESE STATIONS ARE NOT UNDER NWS QUALITY CONTROL. THEY ALSO MAY NOT
  REPORT WEATHER SUCH AS PRECIPITATION OR FOG.

ILZ001-002-007-009-015-016-024-272200-
NORTHWEST ILLINOIS

CITY           SKY/WX    TMP DP  RH WIND       PRES   REMARKS
MOLINE         CLOUDY    33  25  72 W13G23    30.12R WCI  24
STERLING*      CLOUDY    34  27  75 NW21G26   30.09R WCI  22
SAVANNA*       CLOUDY    33  26  75 W14       30.09R WCI  24
$$

ILZ003-004-008-010-011-017-018-272200-
NORTH CENTRAL ILLINOIS

CITY           SKY/WX    TMP DP  RH WIND       PRES   REMARKS
ROCKFORD       CLOUDY    34  26  72 W20G25    30.07R WCI  23
FREEPORT*      CLOUDY    32  27  83 W14G21    30.07R WCI  22
ROCHELLE*      CLOUDY    33  28  83 W18G29    30.08R WCI  22
DE KALB*       CLOUDY    32  27  81 W20G28    30.06R WCI  21
PERU*          CLOUDY    36  29  76 W18G26    30.09R WCI  25
$$

ILZ005-006-012>014-019>023-272200-
NORTHEAST ILLINOIS

CITY           SKY/WX    TMP DP  RH WIND       PRES   REMARKS
CHICAGO-OHARE  CLOUDY    36  29  75 W21G28    30.01R WCI  25
CHICAGO-MIDWAY CLOUDY    39  31  72 W18G30    30.03R WCI  30
AURORA         CLOUDY    36  28  73 W24       30.07R WCI  24
LANSING*       CLOUDY    38  32  79 W17G26    30.04F WCI  28
JOLIET*        CLOUDY    37  29  74 W12G20    30.08R WCI  29
WAUKEGAN       CLOUDY    36  28  73 W9G25     29.98R WCI  29
DUPAGE AIRPORT CLOUDY    36  29  75 W16G25    30.05R WCI  26
KANKAKEE*      DRIZZLE   38  33  85 W15       30.09S WCI  29
WHEELING       CLOUDY    36  29  75 W17G28    30.01R WCI  26
MORRIS*        CLOUDY    37  32  82 W17       30.07R WCI  27
ROMEOVILLE*    CLOUDY    37  30  77 W15       30.07R WCI  27
NORTHERLY ISL    N/A     39  30  70 W16         N/A  WCI  30
$$

LMZ740>746-272200-
SOUTHERN LAKE MICHIGAN

STATION/POSITION SKY/WX   TEMP    WIND        PRES    VSBY  WAVE
                          AIR SEA DIR/SP/G                  HT/PER
                          (F)     (DEG/KT/KT) (MB)    (MI)  (FT/S)
WAUKEGAN HARBOR            37     260/ 20/ 27   N/A
HARRISON CRIB              38     250/ 28/ 34   N/A
BURNHAM HARBOR             39     270/ 10/ 22   N/A
CALUMET HARBOR             39     230/ 14/ 21 1015.5R
MICHIGAN CITY              38     220/ 28/ 31   N/A
$$

ILZ025>027-034>036-040-047-049-050-058-095>099-272200-
WEST-CENTRAL ILLINOIS

CITY           SKY/WX    TMP DP  RH WIND       PRES   REMARKS
QUINCY         CLOUDY    36  28  73 W14       30.15R WCI  27
GALESBURG*     CLOUDY    33  28  81 W15G21    30.12S WCI  23
MACOMB*        CLOUDY    34  29  82 NW15      30.14F WCI  24
JACKSONVILLE*  CLOUDY    38  35  88 W9        30.13R WCI  32
PITTSFIELD*    CLOUDY    37  34  89 W9        30.15R WCI  30
$$

ILZ028>032-037-038-041>044-048-051>054-059>061-272200-
CENTRAL ILLINOIS

CITY           SKY/WX    TMP DP  RH WIND       PRES   REMARKS
PONTIAC        LGT RAIN  38  33  84 W17       30.11R WCI  28
BLOOMINGTON    LGT SNOW  36  34  92 W10       30.10R FOG     WCI  28
DECATUR        LGT RAIN  39  35  86 NW10      30.11F WCI  32
PEORIA         CLOUDY    38  28  67 NW12      30.10F WCI  30
LACON*         CLOUDY    35  28  74 W14G20    30.11S WCI  26
LINCOLN*       DRIZZLE   37  35  90 NW3       30.12F
SPRINGFIELD    LGT RAIN  37  33  85 W10       30.12F WCI  30
TAYLORVILLE    DRIZZLE   36  34  93 NW10      30.11F WCI  28
$$

ILZ033-039-045-046-055>057-062-063-272200-
EAST-CENTRAL ILLINOIS

CITY           SKY/WX    TMP DP  RH WIND       PRES   REMARKS
CHAMPAIGN      LGT RAIN  39  35  86 W16       30.10S WCI  30
DANVILLE*      CLOUDY    40  37  89 W13G25    30.08R
RANTOUL*       LGT RAIN  40  36  87 W13G18    30.10F
MATTOON        CLOUDY    41  38  89 NW15      30.10S
PARIS*         LGT RAIN  44  44 100 W20G28    30.12R
$$

ILZ079-100>102-272200-
SOUTHWEST ILLINOIS

CITY           SKY/WX    TMP DP  RH WIND       PRES   REMARKS
BELLEVILLE     LGT RAIN  41  39  93 W10       30.15R
CAHOKIA*       LGT RAIN  41  37  86 NW9       30.15R FOG
SPARTA*        CLOUDY    42  39  90 N5        30.12F
$$

ILZ064>066-069>071-074>076-080>082-084>086-088>090-092>094-272200-
SOUTH-CENTRAL ILLINOIS

CITY           SKY/WX    TMP DP  RH WIND       PRES   REMARKS
CARBONDALE     CLOUDY    45  43  93 NW12      30.12S FOG
CAIRO*         CLOUDY   N/A N/A N/A CALM      30.10S FOG
EFFINGHAM*     LGT RAIN  43  38  83 W8        30.12F
MARION         CLOUDY    48  46  93 NW12      30.11F FOG
MT. VERNON     CLOUDY    45  39  81 NW3       30.12F
CENTRALIA*     CLOUDY    43  39  86 N10       30.11F
SALEM*         LGT RAIN  44  40  83 NW12      30.12F
METROPOLIS*    DRIZZLE   50  50 100 CALM      30.11R
$$

ILZ067-068-072-073-078-083-087-091-272200-
SOUTHEAST ILLINOIS

CITY           SKY/WX    TMP DP  RH WIND       PRES   REMARKS
LAWRENCEVILLE  LGT RAIN  49  49 100 W6        30.11R FOG
FLORA*         DRIZZLE   46  45  96 NW12      30.12R
FAIRFIELD*     DRIZZLE   48  47  94 NW6       30.11R
HARRISBURG*    CLOUDY    50  50 100 W3        30.12R FOG
ROBINSON*      CLOUDY    49  48  97 SW7       30.11S FOG
CARMI*         CLOUDY    51  51 100 SW6       30.11R FOG
$$

ABBREVIATIONS USED IN REMARKS
   TC - TEMPERATURE IN CELSIUS
  WCI - WIND CHILL INDEX
   HX - HEAT INDEX
  VSB - VISIBILITY
$$




USA.gov is the U.S. government's official web portal to all federal, state and local government web resources and services.